Location: Northam
(31.6525°S, 116.6655°E)
Time: 19:20:26
(UTC+08:00)

Transit 4A - All Passes

Search period start: 13 June 2021 00:00
Search period end: 23 June 2021 00:00
Orbit: 871 x 973 km, 66.8° (Epoch: 13 June)

Date Brightness Start Highest point End Pass type
(mag) Time Alt. Az. Time Alt. Az. Time Alt. Az.
13 Jun - 00:17:55 10° W 00:22:26 21° SW 00:27:02 10° S night (unlit)
13 Jun - 07:38:21 10° S 07:43:42 27° SE 07:48:57 10° ENE daylight
13 Jun - 09:24:09 10° SW 09:30:12 45° WNW 09:36:08 10° N daylight
13 Jun - 22:38:52 10° NNW 22:44:55 87° ENE 22:51:13 10° SSE night (unlit)
14 Jun - 00:29:00 10° WSW 00:32:06 14° SW 00:35:16 10° SSW night (unlit)
14 Jun - 07:47:13 10° S 07:53:13 39° ESE 07:59:05 10° NE daylight
14 Jun - 09:33:59 10° SW 09:39:20 29° WNW 09:44:36 10° NNW daylight
14 Jun - 21:05:00 10° NE 21:08:33 16° ENE 21:12:11 10° ESE night (unlit)
14 Jun - 22:48:15 10° NW 22:54:15 61° WSW 23:00:28 10° SSE night (unlit)
15 Jun - 07:56:16 10° SSW 08:02:38 60° ESE 08:08:50 10° NE daylight
15 Jun - 09:44:18 10° WSW 09:48:23 18° WNW 09:52:26 10° NW daylight
15 Jun - 21:12:42 10° NNE 21:17:36 26° ENE 21:22:38 10° SE night (unlit)
15 Jun - 22:57:59 10° NW 23:03:39 40° WSW 23:09:32 10° S night (unlit)
16 Jun - 06:21:30 10° SSE 06:24:45 14° SE 06:27:57 10° E visible
16 Jun - 08:05:30 10° SSW 08:11:58 90° ESE 08:18:16 10° NNE daylight
16 Jun - 09:56:34 10° W 09:57:23 10° W 09:58:12 10° WNW daylight
16 Jun - 21:21:05 10° N 21:26:41 42° ENE 21:32:31 10° SE night (unlit)
16 Jun - 23:08:03 10° WNW 23:13:09 27° SW 23:18:24 10° S night (unlit)
17 Jun - 06:29:43 10° S 06:34:26 21° SE 06:39:04 10° E visible
17 Jun - 08:14:54 10° SSW 08:21:12 60° WNW 08:27:21 10° N daylight
17 Jun - 21:29:54 10° NNW 21:35:52 66° ENE 21:42:05 10° SSE night (unlit)
17 Jun - 23:18:39 10° W 23:22:46 18° SW 23:26:58 10° S night (unlit)
18 Jun - 06:38:24 10° S 06:44:01 31° ESE 06:49:31 10° ENE visible
18 Jun - 08:24:32 10° SW 08:30:23 38° WNW 08:36:06 10° N daylight
18 Jun - 19:57:54 10° ENE 19:59:41 11° E 20:01:29 10° E night (unlit)
18 Jun - 21:39:04 10° NNW 21:45:08 81° WSW 21:51:27 10° SSE night (unlit)
18 Jun - 23:30:10 10° WSW 23:32:29 12° SW 23:34:50 10° SSW night (unlit)
19 Jun - 06:47:20 10° SSW 06:53:29 46° ESE 06:59:30 10° NE visible
19 Jun - 08:34:30 10° SW 08:39:28 24° WNW 08:44:22 10° NNW daylight
19 Jun - 20:04:30 10° NNE 20:08:40 19° ENE 20:12:56 10° ESE night (unlit)
19 Jun - 21:48:34 10° NW 21:54:29 53° WSW 22:00:38 10° SSE night (unlit)
20 Jun - 05:14:00 10° SSE 05:15:21 11° SE 05:16:41 10° ESE visible
20 Jun - 06:56:27 10° SSW 07:02:52 69° ESE 07:09:08 10° NNE daylight
20 Jun - 08:45:08 10° WSW 08:48:30 15° WNW 08:51:51 10° NW daylight
20 Jun - 20:12:30 10° NNE 20:17:44 31° ENE 20:23:07 10° SE visible
20 Jun - 21:58:24 10° WNW 22:03:56 35° WSW 22:09:39 10° S night (unlit)
21 Jun - 05:21:15 10° SSE 05:25:07 16° SE 05:28:56 10° E visible
21 Jun - 07:05:45 10° SSW 07:12:11 79° WNW 07:18:26 10° NNE daylight
21 Jun - 20:21:03 10° N 20:26:52 49° ENE 20:32:52 10° SE visible
21 Jun - 22:08:39 10° WNW 22:13:28 23° SW 22:18:25 10° S night (unlit)
22 Jun - 05:29:41 10° S 05:34:46 24° SE 05:39:46 10° ENE visible
22 Jun - 07:15:13 10° SW 07:21:24 51° WNW 07:27:25 10° N daylight
22 Jun - 20:30:01 10° NNW 20:36:04 77° ENE 20:42:22 10° SSE visible
22 Jun - 22:19:28 10° W 22:23:07 16° SW 22:26:50 10° SSW night (unlit)
